Flag for U.S.A. Weather past 2 weeks in Pomona, California, U.S.A.

Now
68 °F

Overcast.


Feels Like: 68 °F
Forecast: 61 / 81 °F
Wind: 3 mph from Southwest

Location: Chino Airport

Current Time: Sep 3, 2015 at 10:59:08 AM

Latest Report: Sep 3, 2015 at 9:53 AM


Visibility: 7 mi

Pressure: 29.95 "Hg

Humidity: 70%

Dew point: 58 °F

Location of PomonaLocation

Historic Weather in Pomona — Graph

°F

Pomona temperature yesterday

Maximum temperature yesterday: 88 °F (at 1:53 PM)
Minimum temperature yesterday: 65 °F (at 11:53 PM)
Average temperature yesterday: 74 °F

Past Weeks' High & Low Weather Summary

 TemperatureHumidityPressure
High106 °F (Aug 28, 1:53 PM)94% (Aug 24, 6:04 AM)29.99 "Hg (Aug 24, 6:04 AM)
Low61 °F (Sep 3, 3:53 AM)14% (Aug 28, 1:53 PM)29.79 "Hg (Aug 28, 4:53 PM)
Average78 °F59%29.90 "Hg
* Reported Aug 19 9:53 AM — Sep 3 9:53 AM, Pomona, Weather by CustomWeather, © 2015

Note: Actual official high and low records may vary slightly from our data, if they occured in-between our weather recording intervals... More about our weather records

Advertising

Pomona weather history for previous 24 hours

 ConditionsComfort  
Time TempWeatherWind HumidityBarometerVisibility
9:53 AM
Thu, Sep 3
68 °FOvercast.3 mph70%29.95 "Hg7 mi
8:53 AM67 °FOvercast.5 mph76%29.95 "Hg7 mi
7:53 AM67 °FOvercast.6 mph76%29.93 "Hg7 mi
6:53 AM66 °FOvercast.5 mph78%29.92 "Hg7 mi
5:53 AM65 °FOvercast.5 mph81%29.91 "Hg8 mi
4:53 AM63 °FOvercast.No wind84%29.91 "Hg8 mi
3:53 AM61 °FClear.No wind87%29.92 "Hg8 mi
2:53 AM63 °FClear.No wind84%29.92 "Hg8 mi
1:53 AM64 °FClear.No wind81%29.92 "Hg9 mi
12:53 AM64 °FClear.5 mph84%29.94 "Hg9 mi
11:53 PM
Wed, Sep 2
65 °FClear.6 mph81%29.94 "Hg9 mi
10:53 PM67 °FClear.7 mph79%29.93 "Hg9 mi
9:53 PM68 °FClear.9 mph76%29.93 "Hg10 mi
8:53 PM70 °FClear.13 mph68%29.90 "Hg10 mi
7:53 PM72 °FScattered clouds.14 mph66%29.88 "Hg10 mi
6:53 PM76 °FScattered clouds.16 mph56%29.86 "Hg10 mi
5:53 PM81 °FScattered clouds.15 mph47%29.86 "Hg10 mi
4:53 PM84 °FScattered clouds.14 mph41%29.87 "Hg10 mi
3:53 PM87 °FScattered clouds.14 mph36%29.87 "Hg10 mi
2:53 PM87 °FScattered clouds.13 mph36%29.89 "Hg10 mi
1:53 PM88 °FScattered clouds.10 mph33%29.91 "Hg10 mi
12:53 PM85 °FScattered clouds.6 mph37%29.93 "Hg10 mi
11:53 AM80 °FScattered clouds.3 mph45%29.95 "Hg10 mi
10:53 AM77 °FPartly sunny.No wind52%29.97 "Hg7 mi
Weather by CustomWeather, © 2015

See weather overviewHow to use our weather pages